Temperature
17 18 18 18 18 17 17 16 16 16 15 14 13 13 14 14 14 14 14 13 13 13 12 12 12 12 11 11 11 11 11 10 10 10 10 10 10 10 10 10 10 9 9 9
18 18 18 17 17 17 17 16 16 15 14 14 14 14 14 14 14 13 13 13 12 12 12 11 11 11 10 10 10 10 10 9 9 9 9 10 9 9 9 9 9 9 9 9
16 17 17 17 17 17 16 16 15 14 13 13 12 12 13 13 13 13 12 12 11 11 10 10 10 10 9 9 9 9 9 8 8 8 8 8 8 9 9 9 9 9 9 9
15 17 18 16 17 17 16 15 14 13 13 13 13 13 13 13 12 12 11 11 10 10 9 9 9 9 8 8 8 8 7 7 7 7 7 7 7 7 8 8 8 8 8 8
14 16 16 17 17 16 15 14 14 13 12 13 13 11 12 13 12 11 10 10 9 9 9 8 8 8 7 7 7 7 7 6 6 6 6 6 6 6 7 7 7 7 8 8
14 17 17 17 17 17 15 14 14 13 12 12 11 8 10 12 11 10 10 9 9 8 8 8 7 7 6 6 6 6 6 6 5 6 5 5 6 6 6 6 6 6 7 7
15 16 15 16 16 16 15 14 14 14 13 12 10 10 11 11 10 9 9 8 8 7 7 7 6 6 6 6 6 5 5 5 5 5 5 5 5 5 5 5 6 6 6 7
13 15 16 16 15 14 14 15 14 14 13 12 12 11 11 10 9 9 8 8 7 7 6 6 6 6 5 5 5 5 5 5 5 5 5 5 5 5 5 5 5 5 6 6
13 14 15 15 16 16 15 15 14 13 13 12 11 10 10 9 8 8 7 7 7 6 6 6 6 5 5 5 5 5 5 5 5 5 5 5 5 5 5 5 5 5 5 6
13 14 15 16 16 15 15 14 13 13 12 11 10 10 9 8 8 7 7 7 6 6 6 6 6 5 5 5 5 5 5 5 4 4 4 5 4 4 4 5 5 5 5 5
14 14 15 15 15 15 14 14 13 12 11 10 10 9 8 8 7 7 7 6 6 6 5 5 5 5 5 5 5 5 5 5 4 4 4 4 4 4 4 4 5 5 5 5
14 16 14 16 16 15 14 13 12 11 11 10 9 9 8 8 7 7 6 6 6 6 6 5 5 5 5 5 5 5 5 5 4 4 4 4 4 4 4 4 5 5 5 5
18 18 17 16 15 14 13 13 12 11 10 9 9 8 8 7 7 7 7 6 6 6 6 5 5 5 5 5 5 5 5 5 5 5 4 5 5 4 4 5 5 5 5 5
18 17 16 15 15 14 13 12 11 11 10 9 9 8 8 7 7 7 7 6 6 6 6 5 5 5 5 5 5 5 5 5 5 5 5 5 5 5 5 5 5 5 5 5
17 17 16 15 14 13 12 12 11 10 9 9 8 8 7 7 7 7 7 6 6 6 6 5 5 5 5 5 5 5 5 5 5 5 5 5 5 5 5 5 5 5 5 5
17 16 15 15 14 13 12 11 10 10 9 9 8 8 7 7 7 7 7 6 6 6 6 5 5 5 5 5 5 5 5 5 5 5 5 5 5 5 5 5 5 5 5 6
17 16 15 14 14 13 12 11 10 9 9 8 8 8 7 7 7 7 7 7 7 6 6 6 6 6 6 6 6 6 6 5 5 5 5 5 5 5 5 5 5 5 6 6
18 17 16 15 14 13 12 11 10 9 9 8 8 8 7 7 7 7 7 7 7 7 7 6 6 6 6 6 6 6 6 6 6 6 6 6 6 6 6 6 6 6 6 6
17 16 15 14 13 12 11 11 10 9 9 8 8 8 7 7 7 7 7 7 6 6 6 6 6 6 6 6 6 6 6 6 6 6 6 6 6 6 6 6 6 6 6 6
17 16 15 14 13 12 11 11 10 9 9 8 8 8 8 7 7 7 7 7 6 6 6 6 7 7 7 6 6 6 6 6 6 6 6 6 6 6 6 6 6 6 6 6
17 16 15 14 13 12 11 10 10 9 9 8 8 8 7 7 7 7 6 7 7 7 7 7 7 7 7 7 6 6 6 6 6 6 7 7 6 6 6 6 6 6 6 7
16 15 14 14 13 12 11 10 10 9 9 8 8 8 7 7 7 7 6 6 6 7 7 7 7 7 7 7 7 7 7 6 6 7 7 7 7 7 7 7 7 7 7 7
16 15 14 13 13 12 11 10 10 9 9 8 8 8 7 7 7 6 6 6 7 7 7 7 7 7 7 7 7 7 7 7 7 7 7 7 7 7 7 7 7 7 8 8
16 15 14 13 12 12 11 11 10 9 9 8 8 7 7 7 7 6 6 6 7 7 7 7 8 8 7 7 7 7 7 7 7 7 7 7 7 7 8 8 8 8 8 8
16 15 14 13 13 12 11 11 10 9 9 8 8 7 7 7 7 7 6 7 7 7 7 8 8 8 8 8 7 7 7 7 7 7 7 7 8 8 8 8 8 8 9 9
16 15 14 14 13 12 11 10 10 9 9 8 8 7 7 7 7 6 6 6 7 7 7 7 8 8 8 8 7 7 7 7 7 7 8 8 8 8 8 8 9 9 9 9
15 14 14 13 13 12 11 10 10 9 9 8 8 7 7 7 7 6 6 6 6 7 7 7 7 7 8 8 8 8 8 8 8 8 8 8 8 8 8 9 9 9 9 9
Wind_Speed
1 2 3 3 4 4 4 2 3 6 6 6 4 6 7 8 9 10 10 10 11 11 11 11 11 11 11 12 12 12 11 12 13 14 13 12 12 12 12 11 12 11 10 10
3 4 5 4 4 3 2 1 3 4 6 5 5 6 7 10 11 11 11 11 12 12 12 12 12 12 12 12 12 11 12 13 13 13 13 13 13 13 12 12 12 11 11 11
1 2 3 3 2 1 3 4 4 6 6 5 7 9 9 10 11 12 13 13 13 13 13 13 13 12 12 13 12 12 13 13 13 13 13 13 13 12 12 12 12 11 12 11
2 2 3 5 2 3 4 6 6 6 7 7 10 10 10 10 10 11 12 12 13 12 12 12 13 13 13 13 13 13 13 14 13 13 13 12 12 12 12 11 10 11 12 12
3 1 5 3 3 2 3 7 5 6 8 8 8 8 7 8 7 9 11 12 12 12 13 12 14 14 13 14 14 14 14 14 13 12 13 12 12 12 11 10 10 10 9 11
4 1 4 5 3 0 1 6 4 5 8 8 6 7 8 8 9 10 11 11 12 12 14 14 15 13 13 15 14 15 15 14 14 13 13 13 13 12 11 10 11 10 10 10
3 3 6 5 1 2 1 6 3 5 7 7 5 8 9 11 11 10 12 14 13 14 14 15 15 14 14 15 16 16 15 14 14 14 14 14 13 12 11 10 10 10 10 10
4 1 6 3 4 4 7 4 4 5 6 7 9 10 10 10 11 12 13 13 13 13 15 15 14 14 15 16 16 15 15 15 14 14 14 13 10 10 10 9 9 9 9 9
7 7 5 4 6 4 5 4 4 4 6 7 7 8 9 9 10 12 13 13 13 14 16 16 14 14 16 16 16 16 15 15 14 13 12 10 10 9 8 7 7 7 7 7
3 6 5 5 4 3 4 4 4 5 6 5 7 9 10 10 11 12 12 14 13 15 16 17 16 16 15 15 15 15 15 14 12 11 10 9 7 7 6 6 6 6 6 7
4 6 3 5 6 5 3 3 3 4 4 5 7 9 9 10 12 12 12 12 13 15 16 18 17 17 16 15 14 15 14 12 11 9 9 8 7 6 7 6 6 6 6 6
7 7 7 6 5 5 4 3 4 4 5 6 5 8 9 10 10 12 14 14 15 16 17 18 18 17 16 14 14 14 12 11 9 8 7 6 6 5 6 7 8 10 10 8
5 5 6 4 3 4 3 3 2 3 5 7 7 7 8 9 9 11 14 15 16 17 17 18 17 17 16 15 14 13 13 11 8 7 6 6 5 4 4 4 4 5 6 7
5 6 4 4 4 3 2 1 1 3 5 6 6 8 9 9 11 14 15 15 16 16 17 16 17 16 16 15 14 13 12 11 9 7 6 5 4 3 3 2 2 1 1 3
7 6 6 5 4 3 2 1 2 5 6 7 7 8 9 11 13 14 14 15 15 16 16 16 17 17 16 15 14 13 11 8 7 6 5 4 3 2 2 2 1 1 1 1
7 5 6 5 5 4 2 2 3 5 6 7 7 9 10 11 12 13 13 14 15 17 17 16 17 17 16 15 13 11 9 12 10 6 5 4 4 3 2 2 2 1 1 1
9 7 7 6 6 5 4 5 5 5 6 7 8 9 10 11 12 14 15 15 14 14 14 15 17 18 16 14 12 9 8 9 11 7 5 4 4 3 3 2 2 2 2 1
9 9 9 8 7 6 5 5 5 5 5 7 8 8 9 10 12 14 15 16 15 14 14 16 18 18 15 13 11 8 7 7 6 5 4 4 4 3 3 3 3 2 2 2
8 9 9 9 8 6 5 5 5 5 6 6 6 8 8 9 10 12 13 14 14 15 17 18 21 17 15 15 14 7 7 7 6 5 4 5 4 4 3 3 3 3 3 2
8 9 9 8 7 6 5 5 4 5 5 4 5 7 8 10 11 12 12 10 9 11 15 17 16 14 14 14 15 8 7 7 6 5 5 5 4 4 4 4 4 4 3 3
10 9 9 8 7 6 6 5 4 4 4 4 4 6 8 9 10 10 11 11 12 14 16 15 12 12 13 13 12 8 7 7 6 5 5 4 4 5 5 4 4 4 4 3
10 10 10 8 7 6 5 4 4 4 4 3 4 5 7 9 10 10 8 7 11 16 14 10 11 15 17 14 8 8 8 7 6 5 5 4 4 4 4 4 4 4 4 3
9 9 9 9 8 6 4 4 4 4 3 3 4 5 6 7 7 7 9 9 11 16 12 10 15 20 18 10 9 9 9 8 6 5 4 4 3 3 3 4 3 3 3 3
9 9 9 7 6 5 5 5 4 3 3 3 3 4 4 6 6 5 6 11 13 14 10 12 17 18 14 9 9 9 8 8 7 6 5 4 3 3 3 3 3 3 3 3
10 9 7 8 7 7 7 5 3 3 2 2 3 4 4 3 4 7 8 9 12 12 10 12 15 15 11 9 9 9 9 8 8 6 5 4 4 3 3 3 3 3 3 3
8 8 8 9 8 6 5 5 4 3 3 2 2 3 4 4 5 6 7 9 11 11 10 9 11 11 9 9 9 9 9 9 9 8 7 6 5 4 4 4 4 4 3 3
7 6 5 5 5 6 5 5 5 5 4 3 2 2 4 5 5 6 8 8 9 9 9 9 9 9 9 9 9 9 8 8 8 8 8 7 6 5 4 4 4 4 4 4
Wind_Direction
31 15 94 72 47 54 79 154 212 265 261 265 267 280 286 288 292 296 292 292 288 285 285 284 284 281 278 277 277 275 272 269 266 264 261 259 256 253 251 248 247 241 239 239
32 39 70 64 35 46 39 319 269 275 273 254 276 285 285 287 290 292 289 289 289 289 289 288 287 286 285 283 280 277 273 272 271 269 266 260 256 255 252 251 249 244 240 239
222 287 1 299 264 275 269 251 236 250 261 290 297 290 282 284 289 289 289 291 293 293 292 291 290 288 286 284 284 281 277 275 273 271 270 267 264 258 252 251 249 246 243 238
117 66 273 255 250 221 245 255 230 241 266 276 269 276 278 277 280 286 291 294 295 295 294 292 290 290 289 290 289 285 282 280 277 273 270 268 265 262 257 252 246 244 245 241
108 205 288 273 232 200 245 278 225 238 270 281 293 315 295 280 279 282 287 291 293 293 295 295 296 297 297 295 293 291 289 285 283 279 276 272 267 263 261 256 251 245 243 239
114 163 259 251 246 231 139 289 239 239 272 287 317 319 291 292 305 300 299 299 299 300 300 301 300 300 299 298 298 296 294 291 287 280 274 271 266 261 256 252 252 250 246 240
140 227 266 249 264 72 222 270 258 248 267 279 265 251 275 300 303 296 297 298 300 302 304 303 303 303 301 301 299 298 297 294 289 283 277 271 266 259 252 250 249 247 246 244
145 210 272 217 143 182 224 248 263 265 270 273 272 279 291 299 299 302 304 304 306 307 307 306 305 305 303 301 300 301 299 296 292 287 283 281 267 259 250 245 246 247 245 247
186 212 241 226 208 216 188 228 259 263 277 283 286 290 297 296 299 302 305 306 308 310 310 310 309 308 305 304 304 304 302 299 296 294 287 279 272 265 256 243 241 241 238 241
233 259 239 228 231 231 208 230 261 271 283 287 288 292 298 300 303 307 306 311 312 314 315 315 315 313 308 306 307 306 304 303 300 298 294 286 274 261 252 243 237 234 234 236
241 265 261 254 233 230 235 254 280 295 290 290 292 296 297 303 307 309 312 312 314 317 317 316 317 316 314 313 313 310 308 306 303 299 295 294 282 266 253 241 232 228 235 232
217 216 193 233 227 201 209 244 271 290 301 303 293 291 300 305 305 309 315 317 320 320 319 318 318 317 317 318 317 315 314 312 309 304 301 297 292 288 261 246 245 236 237 237
205 183 179 208 178 171 194 230 261 281 289 296 299 297 302 303 305 312 317 321 322 321 320 320 321 321 323 323 322 320 317 316 313 310 310 305 298 293 295 283 256 251 248 240
177 137 158 189 189 180 182 208 283 303 297 292 293 301 306 307 314 321 323 322 321 321 322 323 325 326 328 327 326 324 323 323 322 313 313 313 306 297 290 297 315 329 281 235
183 176 180 170 152 150 156 212 301 306 305 306 303 308 314 319 321 321 320 322 324 325 328 330 330 330 331 331 330 328 327 327 325 323 323 324 322 321 323 327 337 342 12 43
167 149 147 156 176 187 205 249 273 288 296 300 306 312 316 316 316 318 322 328 330 330 329 332 333 332 332 333 332 331 331 336 343 342 344 348 353 3 7 7 7 8 42 57
148 173 187 196 204 210 223 238 250 268 287 297 303 311 319 324 327 329 331 330 327 323 327 334 335 334 334 336 335 334 335 338 348 354 356 357 3 8 9 11 21 24 38 64
177 179 177 180 188 205 230 247 257 271 281 290 306 318 326 329 328 327 327 327 330 333 340 341 337 336 337 339 338 337 340 342 347 352 358 6 7 8 12 19 28 43 56 61
164 164 170 177 181 188 209 233 249 268 286 301 313 318 317 318 319 322 326 330 337 341 340 337 333 338 340 341 344 340 345 349 354 358 5 13 17 19 23 32 41 48 61 73
162 164 169 177 182 187 209 228 246 271 288 301 310 319 326 327 328 329 330 328 331 333 331 332 337 342 341 340 344 344 350 355 2 7 16 24 25 25 30 39 49 53 55 66
171 171 176 183 193 203 212 218 232 263 286 300 306 314 317 320 326 331 333 334 335 338 337 335 343 344 341 338 338 348 356 1 7 13 20 27 31 31 32 38 46 52 57 64
178 179 185 188 193 209 221 220 228 250 275 293 303 314 324 328 331 332 323 320 327 333 338 341 345 343 343 342 350 355 360 6 11 14 19 26 32 34 34 43 46 48 54 60
181 183 186 191 197 206 218 225 230 237 253 273 294 312 319 318 321 327 331 330 333 333 337 343 342 344 347 354 357 358 2 6 10 11 13 20 25 27 33 47 50 51 57 60
182 185 190 188 177 185 215 230 229 235 245 261 279 300 312 321 321 313 313 319 330 333 340 342 344 349 354 2 1 1 2 3 2 3 8 16 22 26 36 48 54 49 57 64
185 183 178 174 187 207 218 217 214 229 244 270 295 310 317 310 306 316 323 330 337 341 345 346 349 354 2 4 4 2 359 359 357 358 9 15 17 23 33 47 53 52 50 55
186 190 193 198 201 200 192 187 200 214 219 250 285 308 324 326 323 326 332 339 344 346 350 353 355 359 4 4 3 2 360 357 360 4 7 12 19 28 35 43 50 51 49 49
192 190 191 205 207 190 181 185 196 203 204 212 249 301 327 336 339 342 345 348 351 354 355 356 359 2 4 5 5 5 5 4 2 3 5 8 12 17 23 33 40 47 53 60
Height
1509 1506 1505 1508 1509 1509 1511 1514 1519 1515 1513 1509 1507 1505 1503 1500 1497 1494 1491 1488 1485 1481 1477 1473 1468 1464 1460 1456 1452 1448 1444 1441 1437 1435 1432 1429 1428 1426 1425 1424 1424 1423 1424 1424
1511 1508 1508 1511 1510 1509 1511 1511 1512 1512 1512 1505 1504 1503 1500 1497 1494 1491 1487 1484 1480 1476 1471 1466 1461 1457 1452 1447 1443 1439 1435 1431 1428 1425 1422 1419 1417 1416 1415 1414 1414 1414 1414 1414
1520 1513 1513 1518 1512 1511 1511 1510 1511 1513 1510 1504 1503 1500 1497 1494 1491 1487 1483 1479 1475 1470 1465 1460 1454 1449 1444 1439 1434 1429 1425 1421 1418 1414 1411 1409 1408 1406 1405 1404 1404 1404 1404 1405
1522 1520 1524 1517 1507 1506 1508 1507 1506 1506 1505 1503 1501 1497 1494 1491 1488 1483 1479 1474 1469 1464 1458 1453 1447 1441 1436 1430 1425 1420 1415 1411 1407 1404 1401 1399 1397 1396 1395 1394 1394 1394 1395 1396
1525 1524 1520 1512 1506 1506 1509 1508 1504 1504 1502 1500 1497 1494 1490 1488 1484 1480 1475 1470 1464 1458 1452 1445 1439 1433 1427 1421 1416 1411 1406 1402 1398 1394 1391 1389 1387 1386 1385 1384 1384 1385 1385 1386
1523 1521 1523 1512 1504 1503 1507 1509 1502 1502 1500 1498 1495 1496 1488 1483 1480 1475 1470 1465 1458 1452 1445 1438 1432 1426 1419 1413 1408 1402 1398 1393 1389 1385 1382 1379 1377 1375 1375 1374 1375 1375 1376 1378
1521 1521 1516 1505 1502 1504 1513 1510 1500 1499 1497 1495 1493 1491 1485 1480 1475 1471 1465 1459 1453 1446 1438 1431 1425 1419 1412 1406 1400 1395 1389 1384 1380 1376 1372 1369 1367 1366 1365 1365 1365 1366 1367 1369
1523 1521 1517 1500 1501 1505 1504 1498 1497 1496 1494 1492 1489 1485 1481 1476 1471 1466 1459 1453 1446 1439 1432 1425 1419 1412 1405 1398 1393 1387 1382 1376 1371 1367 1364 1361 1358 1357 1356 1356 1357 1358 1359 1361
1510 1510 1500 1497 1497 1497 1497 1496 1495 1493 1491 1489 1485 1481 1477 1472 1467 1461 1454 1447 1440 1433 1426 1419 1413 1406 1399 1392 1386 1380 1374 1369 1364 1360 1356 1353 1351 1350 1349 1349 1350 1351 1352 1354
1502 1498 1496 1495 1495 1495 1495 1494 1493 1491 1489 1486 1482 1478 1474 1468 1462 1456 1449 1442 1435 1428 1420 1413 1407 1400 1394 1387 1380 1374 1368 1363 1358 1354 1350 1347 1345 1344 1343 1343 1344 1345 1346 1348
1499 1495 1493 1493 1492 1492 1492 1491 1490 1488 1486 1483 1479 1475 1470 1465 1458 1452 1445 1438 1431 1423 1416 1408 1402 1395 1389 1382 1376 1369 1364 1358 1353 1349 1345 1343 1341 1339 1338 1339 1339 1340 1342 1343
1494 1488 1490 1489 1489 1490 1489 1489 1487 1485 1483 1480 1476 1472 1467 1461 1455 1448 1441 1434 1427 1419 1412 1405 1398 1391 1384 1378 1372 1366 1360 1354 1350 1346 1342 1340 1338 1336 1335 1335 1336 1337 1338 1339
1484 1485 1486 1487 1487 1487 1487 1486 1485 1483 1480 1477 1473 1469 1464 1458 1451 1445 1438 1431 1424 1416 1409 1402 1395 1388 1381 1375 1369 1363 1358 1352 1348 1344 1341 1338 1336 1334 1334 1334 1334 1334 1335 1336
1482 1484 1484 1485 1485 1485 1485 1484 1482 1480 1477 1474 1470 1466 1460 1454 1448 1442 1435 1428 1421 1414 1407 1400 1392 1385 1379 1372 1367 1361 1356 1351 1347 1343 1340 1338 1335 1334 1333 1333 1333 1333 1333 1334
1480 1482 1482 1482 1483 1483 1482 1481 1479 1477 1474 1471 1467 1462 1457 1451 1445 1439 1433 1426 1419 1412 1405 1398 1391 1384 1377 1371 1366 1361 1356 1351 1347 1344 1340 1338 1336 1335 1334 1333 1333 1333 1333 1334
1477 1479 1480 1480 1480 1480 1480 1478 1476 1474 1471 1468 1464 1459 1455 1449 1444 1437 1431 1424 1417 1410 1403 1396 1390 1383 1377 1371 1366 1361 1356 1352 1348 1345 1342 1340 1338 1337 1336 1335 1334 1334 1334 1334
1474 1476 1477 1477 1478 1478 1477 1476 1474 1472 1469 1466 1462 1457 1452 1447 1441 1435 1429 1422 1416 1410 1403 1396 1389 1383 1377 1372 1367 1362 1358 1354 1350 1347 1345 1343 1341 1339 1338 1337 1336 1336 1336 1336
1471 1473 1474 1474 1475 1475 1474 1473 1471 1469 1467 1463 1459 1455 1450 1445 1439 1433 1427 1421 1415 1409 1403 1396 1390 1383 1378 1373 1368 1364 1359 1356 1352 1350 1347 1345 1344 1342 1341 1339 1338 1338 1338 1338
1468 1470 1471 1472 1472 1472 1471 1470 1469 1467 1464 1461 1457 1453 1448 1443 1438 1432 1426 1420 1414 1407 1401 1395 1390 1384 1378 1374 1370 1366 1362 1358 1355 1353 1351 1348 1346 1345 1344 1342 1341 1341 1341 1341
1465 1467 1468 1469 1469 1469 1468 1467 1466 1464 1462 1459 1455 1451 1446 1441 1436 1431 1425 1420 1415 1409 1402 1396 1390 1385 1380 1376 1372 1368 1365 1361 1359 1356 1354 1352 1350 1349 1348 1346 1346 1345 1344 1345
1462 1464 1465 1466 1466 1466 1465 1465 1463 1461 1459 1456 1453 1449 1444 1440 1435 1429 1424 1418 1414 1408 1403 1397 1392 1387 1382 1378 1374 1370 1367 1365 1362 1360 1358 1357 1355 1353 1352 1351 1350 1350 1350 1350
1459 1460 1462 1463 1463 1463 1463 1462 1461 1459 1457 1454 1451 1447 1443 1438 1433 1428 1424 1419 1414 1409 1403 1398 1393 1388 1384 1380 1377 1373 1370 1368 1366 1364 1362 1361 1359 1358 1357 1356 1356 1355 1355 1356
1455 1457 1458 1459 1460 1460 1460 1459 1458 1456 1454 1452 1448 1445 1441 1436 1432 1427 1422 1418 1413 1409 1404 1399 1394 1390 1386 1383 1379 1376 1373 1370 1368 1367 1366 1364 1363 1362 1362 1361 1361 1361 1361 1362
1452 1453 1455 1456 1457 1457 1457 1456 1455 1454 1452 1450 1446 1443 1439 1435 1431 1427 1422 1418 1413 1409 1405 1400 1396 1392 1388 1384 1381 1378 1376 1373 1371 1370 1369 1368 1367 1366 1366 1366 1366 1366 1366 1367
1448 1450 1451 1452 1453 1453 1454 1453 1452 1451 1450 1447 1445 1442 1438 1434 1430 1425 1421 1417 1413 1409 1405 1401 1397 1393 1390 1386 1383 1381 1378 1376 1374 1373 1372 1371 1371 1370 1370 1370 1370 1371 1371 1372
1444 1445 1447 1448 1449 1450 1450 1450 1449 1448 1447 1445 1443 1440 1436 1433 1429 1425 1421 1417 1413 1409 1405 1401 1398 1394 1391 1388 1386 1383 1381 1379 1377 1376 1375 1374 1374 1374 1374 1374 1374 1375 1376 1377
1439 1440 1442 1443 1444 1445 1446 1446 1446 1445 1444 1443 1440 1438 1435 1431 1428 1424 1420 1416 1412 1409 1405 1402 1399 1396 1393 1390 1388 1386 1384 1382 1380 1379 1378 1377 1377 1377 1377 1377 1378 1379 1380 1381